[[{"header":{"parameterUnit":"m.s-1","parameterCategory":1,"la1":30.2991,"la2":30.254,"lo1":-89.0895,"lo2":-89.0444,"dy":0.0017,"dx":0.0017,"nx":28,"ny":28,"refTime":"2025-11-11T03:00:00:Z","depth":0,"parameterNumber":2,"parameterNumberName":"U-component_of_WINDS"},"data":[0,0,0,0,0,0,0,0,0,0,0,0,0,0,0,0,0,0,0,0,0,0,0,0,0,0,0,0,0,0,0,0,0,0,0,0,0,0,0,0,0,0,0,0,0,0,0,0,0,0,0,0,0,0,0,0,0,0,3.4966,3.4967,0,3.5059,3.506,3.5061,3.5025,3.5022,3.502,3.5018,3.511,3.5114,3.5118,0,0,0,0,0,0,0,0,0,0,0,0,0,3.4752,3.4756,3.4966,3.4967,3.4968,3.5058,3.506,3.5061,3.5025,3.5022,3.502,3.5017,3.5108,3.5113,3.5119,0,0,0,0,0,0,0,0,0,0,0,0,0,3.4845,3.4757,3.4966,3.4961,3.4962,3.5058,3.506,3.5061,3.5025,3.5022,3.5019,3.5016,3.5106,3.5113,3.5119,3.5225,0,0,3.514,3.5143,0,0,0,0,0,0,0,0,3.4839,3.4853,3.4961,3.4962,3.4963,3.5027,3.5018,3.5116,3.5026,3.5001,3.5018,3.5014,3.5084,3.5093,3.5117,3.5229,3.5233,3.514,3.5144,3.5147,3.5149,0,0,0,0,0,0,0,3.4833,3.4848,3.5002,3.4962,3.4963,3.4953,3.4962,3.5036,3.506,3.5003,3.5001,3.5012,3.5084,3.5111,3.5119,3.5234,3.514,3.5146,3.515,3.5153,3.5431,3.5434,0,0,0,0,0,0,3.4827,3.4843,3.5,3.5005,3.4892,3.4959,3.497,3.5009,3.5059,3.5063,3.5015,3.501,3.5101,3.5111,3.5122,3.5244,3.5147,3.5153,3.5157,3.5427,3.5431,3.5435,0,0,0,0,0,0,3.4823,3.4841,3.4996,3.4924,3.4942,3.4966,3.5011,3.5013,3.5039,3.5068,3.5071,3.5038,3.5099,3.5113,3.5198,3.5246,3.5156,3.5162,3.5423,3.5429,3.5433,3.5491,0,0,0,0,0,0,3.4817,3.484,3.4882,3.4925,3.4947,3.5073,3.5014,3.5017,3.5051,3.5046,3.509,3.5094,3.5097,3.5188,3.5205,3.5254,3.5168,3.5419,3.5426,3.5432,3.5485,3.5497,3.5508,0,0,0,0,0,3.4809,3.4895,3.4884,3.4903,3.5,3.5076,3.5088,3.509,3.5055,3.5096,3.5113,3.5093,3.5239,3.5198,3.5216,3.5268,3.5416,3.5424,3.5431,3.5479,3.5495,3.5508,0,0,0,0,0,0,3.4857,3.4901,3.4889,3.4992,3.503,3.5069,3.5121,3.5107,3.5156,3.5148,3.5149,3.5159,3.5246,3.5266,3.5219,3.5369,3.5322,3.5334,3.5352,3.5367,3.5379,3.537,3.5173,0,0,0,0,0,3.488,3.4939,3.4974,3.5061,3.5081,3.5098,3.5131,3.5129,3.5169,3.5184,3.5208,3.5246,3.5299,3.5335,3.5387,3.5488,3.5494,3.5532,3.5544,3.5554,3.5562,3.5612,3.5627,3.546,3.546,3.546,0,0,3.4927,3.4958,3.4996,3.5071,3.5101,3.5159,3.5112,3.5177,3.522,3.5194,3.5275,3.5294,3.5336,3.5428,3.547,3.5447,3.561,3.5563,3.5571,3.5574,3.5621,3.5637,3.5651,3.5465,3.5464,3.5464,0,0,3.5042,3.5074,3.5147,3.5177,3.5222,3.5232,3.525,3.529,3.5302,3.5383,3.5364,3.5414,3.5508,3.5537,3.5564,3.5685,3.5666,3.5703,3.5762,3.581,3.5823,3.5835,3.5874,3.5888,3.5712,3.5712,3.5712,0,3.5094,3.5184,3.5187,3.5252,3.5284,3.5264,3.5335,3.5364,3.5423,3.5444,3.5419,3.5533,3.556,3.5656,3.5685,3.571,3.5726,3.5696,3.5822,3.5833,3.5844,3.5881,3.5896,3.5716,3.5715,3.5715,3.5715,0,3.5243,3.5305,3.5359,3.5415,3.5454,3.5523,3.5533,3.5571,3.5565,3.5577,3.5658,3.5689,3.5744,3.5768,3.5764,3.5862,3.5846,3.5822,3.5773,3.5864,3.5898,3.5912,3.5721,3.572,3.5719,3.5718,0,0,3.5391,3.5446,3.5465,3.5488,3.5535,3.5582,3.5648,3.5702,3.5732,3.5774,3.5826,3.5904,3.588,3.5911,3.591,3.5953,3.6041,3.5922,3.5923,3.5939,3.6145,3.616,3.6176,3.603,3.6032,3.6035,3.614,0,3.5505,3.5622,3.5624,3.573,3.5784,3.5764,3.5821,3.5854,3.5867,3.5913,3.5926,3.598,3.5947,3.5964,3.6006,3.6021,3.6081,3.6014,3.6074,3.6076,3.606,3.6195,3.6212,3.631,3.6153,3.6156,3.6158,0,3.5655,3.5699,3.581,3.5844,3.5867,3.5918,3.5965,3.6011,3.6047,3.6052,3.6085,3.6076,3.614,3.6093,3.6178,3.6132,3.6157,3.6168,3.6171,3.6174,3.612,3.6197,3.6342,3.6355,3.618,3.6178,3.6176,0,3.5744,3.5832,3.5909,3.593,3.5974,3.6009,3.6028,3.6061,3.6092,3.6133,3.6152,3.62,3.6225,3.6262,3.6265,3.6231,3.6349,3.6303,3.6352,3.6351,3.6375,3.6372,3.6521,3.6398,3.6398,3.6398,3.6397,0,3.587,3.5937,3.5949,3.5995,3.6069,3.607,3.6142,3.6158,3.6187,3.6234,3.6221,3.6265,3.6268,3.6313,3.6316,3.6383,3.6396,3.6399,3.6398,3.6398,3.6397,3.6412,3.6403,3.6402,3.6401,3.64,3.6399,0,3.5981,3.5993,3.6073,3.6107,3.6117,3.6169,3.6197,3.6239,3.625,3.6309,3.6323,3.6339,3.639,3.6398,3.6459,3.646,3.6539,3.6534,3.6527,3.6524,3.6571,3.6565,3.6731,3.6751,3.6619,3.662,3.6621,0,3.6058,3.6109,3.6148,3.6178,3.6199,3.625,3.628,3.6283,3.6315,3.6357,3.6394,3.6444,3.6483,3.6565,3.6581,3.6626,3.6618,3.6673,3.6625,3.6621,3.6613,3.6608,3.6611,3.6681,3.6683,3.6684,3.6685,0,3.6192,3.6194,3.624,3.6286,3.6323,3.6359,3.6394,3.6419,3.6426,3.6462,3.6514,3.6545,3.6605,3.6653,3.6697,3.6714,3.6699,3.6701,3.6713,3.6711,3.6703,3.6703,3.6547,3.6696,3.6695,3.6694,3.6694,3.6693,3.6286,3.6328,3.636,3.641,3.6436,3.6467,3.6507,3.6522,3.6566,3.6615,3.6614,3.667,3.67,3.6757,3.6778,3.682,3.6801,3.6821,3.6825,3.6829,3.6831,3.67,3.6828,3.6828,3.6828,3.6828,3.6827,0,3.6414,3.6433,3.6479,3.6527,3.6565,3.6549,3.6585,3.6617,3.6666,3.6697,3.6735,3.6792,3.6838,3.6857,3.6901,3.693,3.6924,3.6941,3.6937,3.694,3.6848,3.683,3.6945,3.6945,3.6945,3.6945,3.6945,3.6945,3.6485,3.6554,3.656,3.664,3.6658,3.6713,3.6734,3.6762,3.6785,3.685,3.6888,3.69,3.6924,3.6969,3.7009,3.7013,3.7027,3.7047,3.7047,3.696,3.6948,3.6936,3.6919,3.7051,3.7051,3.7136,3.7136,3.7137]},{"header":{"parameterUnit":"m.s-1","parameterCategory":1,"la1":30.2991,"la2":30.254,"lo1":-89.0895,"lo2":-89.0444,"dy":0.0017,"dx":0.0017,"nx":28,"ny":28,"refTime":"2025-11-11T03:00:00:Z","depth":0,"parameterNumber":3,"parameterNumberName":"V-component_of_WINDS"},"data":[0,0,0,0,0,0,0,0,0,0,0,0,0,0,0,0,0,0,0,0,0,0,0,0,0,0,0,0,0,0,0,0,0,0,0,0,0,0,0,0,0,0,0,0,0,0,0,0,0,0,0,0,0,0,0,0,0,0,4.4155,4.4156,0,4.4281,4.4283,4.4284,4.4241,4.4239,4.4236,4.4233,4.436,4.4365,4.4371,0,0,0,0,0,0,0,0,0,0,0,0,0,4.3872,4.3877,4.4155,4.4157,4.4158,4.4281,4.4283,4.4284,4.4242,4.4239,4.4235,4.4232,4.4358,4.4365,4.4372,0,0,0,0,0,0,0,0,0,0,0,0,0,4.3996,4.3879,4.4155,4.4152,4.4153,4.4281,4.4283,4.4285,4.4243,4.4238,4.4234,4.423,4.4355,4.4364,4.4373,4.451,0,0,4.44,4.4404,0,0,0,0,0,0,0,0,4.3989,4.4006,4.4151,4.4152,4.4154,4.4241,4.4229,4.436,4.4244,4.4208,4.4233,4.4228,4.4323,4.4335,4.4367,4.4516,4.4522,4.4401,4.4406,4.441,4.4413,0,0,0,0,0,0,0,4.398,4.4001,4.4205,4.4153,4.4155,4.4142,4.4155,4.4254,4.4287,4.4211,4.4208,4.4224,4.4323,4.4359,4.437,4.4524,4.4401,4.4408,4.4414,4.4417,4.4786,4.479,0,0,0,0,0,0,4.3972,4.3994,4.4201,4.4209,4.406,4.4151,4.4165,4.4217,4.4286,4.4293,4.4227,4.4222,4.4346,4.436,4.4374,4.4536,4.441,4.4418,4.4423,4.4781,4.4787,4.4792,0,0,0,0,0,0,4.3966,4.3991,4.4196,4.4101,4.4126,4.416,4.4219,4.4222,4.4257,4.4299,4.4304,4.4258,4.4343,4.4362,4.4476,4.454,4.4422,4.443,4.4776,4.4783,4.4789,4.4863,0,0,0,0,0,0,4.3958,4.3989,4.4043,4.4102,4.4131,4.4297,4.4223,4.4227,4.4273,4.4267,4.4329,4.4335,4.4341,4.4463,4.4485,4.455,4.4437,4.4771,4.4779,4.4787,4.4855,4.4872,4.4886,0,0,0,0,0,4.3948,4.4059,4.4046,4.4071,4.42,4.4301,4.4317,4.4323,4.4279,4.4332,4.4358,4.4333,4.453,4.4475,4.4499,4.4568,4.4767,4.4777,4.4787,4.4848,4.4869,4.4885,0,0,0,0,0,0,4.4007,4.4067,4.4053,4.4187,4.4239,4.4294,4.4362,4.4345,4.4411,4.4402,4.4405,4.4419,4.4536,4.4564,4.4501,4.4702,4.4641,4.4657,4.468,4.4699,4.4714,4.4704,4.4445,0,0,0,0,0,4.4036,4.4114,4.4162,4.4276,4.4302,4.4328,4.4372,4.4372,4.4426,4.4447,4.4482,4.4533,4.4606,4.4655,4.4725,4.4859,4.487,4.4918,4.4934,4.4946,4.4959,4.5027,4.5048,4.4825,4.4824,4.4824,0,0,4.4096,4.4138,4.4188,4.4288,4.4329,4.4408,4.4347,4.4434,4.4491,4.446,4.4569,4.4596,4.4654,4.4778,4.4834,4.4804,4.5023,4.4959,4.4968,4.4974,4.504,4.5061,4.508,4.4831,4.483,4.4829,0,0,4.4244,4.4286,4.4383,4.4424,4.4486,4.4501,4.4524,4.4581,4.4597,4.4707,4.4684,4.4752,4.4879,4.492,4.4957,4.5117,4.5095,4.514,4.5219,4.5286,4.5304,4.5319,4.5373,4.5392,4.5153,4.5153,4.5153,0,4.4311,4.4431,4.4435,4.4523,4.4567,4.4542,4.4638,4.4678,4.4759,4.4788,4.4754,4.491,4.4948,4.5078,4.5117,4.515,4.5173,4.5132,4.5301,4.5317,4.5331,4.5382,4.5403,4.5158,4.5157,4.5157,4.5156,0,4.4507,4.459,4.4661,4.4739,4.479,4.4883,4.4899,4.495,4.4944,4.4962,4.5072,4.5115,4.5192,4.5223,4.5219,4.5352,4.5331,4.53,4.5238,4.5357,4.5405,4.5425,4.5165,4.5163,4.5161,4.516,0,0,4.4698,4.4775,4.4801,4.4834,4.4899,4.4962,4.5051,4.5126,4.5167,4.5224,4.5296,4.5402,4.5372,4.5414,4.5414,4.5474,4.5592,4.5433,4.5435,4.5459,4.5737,4.5759,4.5782,4.5579,4.5583,4.5586,4.5731,0,4.485,4.5008,4.5012,4.5155,4.523,4.5205,4.5282,4.5328,4.5347,4.5411,4.5431,4.5505,4.5461,4.5486,4.5543,4.5566,4.5648,4.5556,4.5643,4.5646,4.5627,4.5808,4.5832,4.5967,4.575,4.5753,4.5756,0,4.5049,4.5109,4.526,4.5309,4.5341,4.541,4.5477,4.5539,4.559,4.5599,4.5644,4.5635,4.5722,4.5659,4.5778,4.5715,4.5751,4.5767,4.5772,4.5779,4.5707,4.5816,4.6011,4.603,4.5786,4.5784,4.5781,0,4.5168,4.5288,4.5392,4.5422,4.5484,4.5532,4.556,4.5607,4.565,4.5708,4.5735,4.5802,4.5838,4.5889,4.5897,4.585,4.6015,4.5953,4.6022,4.6022,4.6057,4.6054,4.6257,4.6084,4.6084,4.6083,4.6083,0,4.5336,4.5428,4.5446,4.5511,4.5611,4.5615,4.5714,4.5738,4.5779,4.5845,4.5828,4.589,4.5897,4.596,4.5967,4.6062,4.6079,4.6087,4.6087,4.6087,4.6086,4.6109,4.6099,4.6089,4.6088,4.6087,4.6086,0,4.5487,4.5504,4.5615,4.5663,4.5677,4.5749,4.5789,4.5849,4.5864,4.5948,4.5968,4.5992,4.6065,4.6077,4.6164,4.6168,4.628,4.6273,4.6264,4.6262,4.6329,4.6321,4.6552,4.6581,4.6392,4.6394,4.6395,0,4.5592,4.5662,4.5717,4.576,4.5789,4.586,4.5903,4.5908,4.5953,4.6014,4.6065,4.6137,4.6194,4.6311,4.6335,4.64,4.6391,4.6468,4.6401,4.6397,4.6389,4.6383,4.6388,4.648,4.6482,4.6484,4.6485,0,4.5775,4.5779,4.5842,4.5908,4.596,4.6012,4.6061,4.6097,4.6108,4.6159,4.6233,4.6278,4.6364,4.6434,4.6498,4.6524,4.6505,4.6506,4.6525,4.6525,4.6515,4.6518,4.6296,4.65,4.6499,4.6498,4.6497,4.6496,4.5904,4.5963,4.601,4.608,4.6117,4.6162,4.622,4.6242,4.6304,4.6375,4.6374,4.6454,4.6499,4.6583,4.6613,4.6674,4.6649,4.6677,4.6684,4.669,4.6695,4.6507,4.6686,4.6685,4.6685,4.6685,4.6684,0,4.6083,4.6111,4.6176,4.6244,4.6298,4.6277,4.6329,4.6375,4.6446,4.649,4.6546,4.6629,4.6696,4.6724,4.6789,4.6832,4.6825,4.6848,4.6844,4.6849,4.6715,4.6691,4.6853,4.6853,4.6853,4.6852,4.6852,4.6852,4.6183,4.628,4.6289,4.6404,4.6431,4.651,4.6541,4.6581,4.6615,4.6709,4.6764,4.6782,4.6819,4.6885,4.6944,4.695,4.6973,4.7,4.7003,4.6876,4.6859,4.6843,4.682,4.7006,4.7006,4.7131,4.7132,4.7133]}]]